Location: Jetmore
(38.0845°N, 99.8935°W)
Time: 21:30:53
(UTC+00:00)

PSLV R/B - Pass Details

Date: 29 October 2020
Orbit: 567 x 599 km, 98.2° (Epoch: 01 December)

Event Time Altitude Azimuth Distance (km) Brightness Sun altitude
Rises 12:18:56 0° 177° (S) 2,820 7.6 -9.2°
Reaches altitude 10° 12:21:07 10° 182° (S) 1,926 6.7 -8.8°
Maximum altitude 12:25:13 53° 259° (W) 736 4.1 -8.0°
Drops below altitude 10° 12:29:21 10° 337° (NNW) 1,946 6.3 -7.2°
Sets 12:31:35 0° 342° (NNW) 2,852 7.2 -6.8°
